DW8297 Weather Reports


Display with metric or nautical units.
time (UTC)temp
F
wind
direction
speed
MPH
gust
MPH
rain 1hr
in
rain 24hr
in
rain mn
in
humidity
%
barometer
mb
20260505033719 -39 16 0.0 3.0 0.00 0.00 0.00 88 1014.7
20260505032218 -39 35 0.0 3.0 0.00 0.00 0.00 88 1014.7
20260505030712 -39 7 0.0 0.0 0.00 0.00 0.00 88 1014.6
20260505025207 -39 359 0.0 2.0 0.00 0.00 0.00 88 1014.6
20260505024431 -39 359 0.0 0.0 0.00 0.00 0.00 88 1014.8
20260505022154 -39 359 0.0 2.0 0.00 0.00 0.00 88 1014.8
20260505021415 -39 20 0.0 0.0 0.00 0.00 0.00 88 1014.8
20260505015139 -39 20 0.0 4.0 0.00 0.00 0.00 88 1014.6
20260505013633 -39 206 0.0 0.0 0.00 0.00 0.00 88 1014.6
20260505013628 -39 206 0.0 2.0 0.00 0.00 0.00 88 1014.5
20260505010618 -39 206 0.0 0.0 0.00 0.00 0.00 88 1014.3
20260505005107 -39 206 0.0 1.0 0.00 0.00 0.00 88 1014.1
20260505003605 -39 206 0.0 0.0 0.00 0.00 0.00 88 1013.9
20260505002057 -39 206 0.0 0.0 0.00 0.00 0.00 88 1013.8
20260505000556 -39 206 0.0 0.0 0.00 0.00 0.00 88 1013.6
20260504235046 -39 206 0.0 2.0 0.00 0.00 0.00 88 1013.6
20260504233530 -39 207 0.0 2.0 0.00 0.00 0.00 88 1013.6
20260504232031 -39 108 0.0 4.0 0.00 0.00 0.00 88 1013.6
20260504230511 -39 339 1.0 10.0 0.00 0.00 0.00 88 1013.7
20260504230507 -39 31 0.0 4.0 0.00 0.00 0.00 88 1013.6
20260504223500 -39 90 1.0 5.0 0.00 0.00 0.00 88 1013.7
20260504221951 -39 8 2.0 7.0 0.00 0.00 0.00 88 1013.7
20260504220442 -39 287 2.0 6.0 0.00 0.00 0.00 88 1013.9
20260504214937 -39 291 2.0 7.0 0.00 0.00 0.00 88 1013.9
20260504213438 -39 226 2.0 6.0 0.00 0.00 0.00 88 1014.0
20260504211937 -39 26 3.0 11.0 0.00 0.00 0.00 88 1013.9
20260504210439 -39 308 2.0 8.0 0.00 0.00 0.00 88 1013.8
20260504204942 -39 35 2.0 9.0 0.00 0.00 0.00 88 1014.3
20260504204938 -39 10 2.0 8.0 0.00 0.00 0.00 88 1013.9
20260504201939 -39 237 2.0 7.0 0.00 0.00 0.00 88 1014.4
20260504200438 -39 58 2.0 9.0 0.00 0.00 0.00 88 1014.5
20260504194937 -39 19 2.0 8.0 0.00 0.00 0.00 88 1014.7
20260504193439 -39 3 2.0 9.0 0.00 0.00 0.00 88 1014.8
20260504191935 -39 319 2.0 9.0 0.00 0.00 0.00 88 1015.1
20260504191204 -39 17 2.0 7.0 0.00 0.00 0.00 88 1015.1
20260504184932 -39 73 3.0 9.0 0.00 0.00 0.00 88 1015.4
20260504183432 -39 37 2.0 9.0 0.00 0.00 0.00 88 1015.5
20260504181932 -39 269 2.0 8.0 0.00 0.00 0.00 88 1015.8
20260504180433 -39 354 2.0 10.0 0.00 0.00 0.00 88 1016.1
20260504175703 -39 252 2.0 6.0 0.00 0.00 0.00 88 1016.1
20260504174204 -39 21 2.0 8.0 0.00 0.00 0.00 88 1016.4
20260504171933 -39 17 3.0 7.0 0.00 0.00 0.00 88 1016.5
20260504170432 -39 348 3.0 8.0 0.00 0.00 0.00 88 1016.8
20260504160418 -39 52 3.0 8.0 0.00 0.00 0.00 88 1017.6
20260504151147 -39 138 1.0 4.0 0.00 0.00 0.00 88 1017.9
20260504140404 -39 277 2.0 5.0 0.00 0.00 0.00 88 1018.1
20260504100328 -39 7 0.0 0.0 0.00 0.00 0.00 88 1019.2
20260504081743 -39 7 0.0 0.0 0.00 0.00 0.00 88 1019.1
20260504080231 -39 7 0.0 0.0 0.00 0.00 0.00 88 1019.0
20260504070150 -39 7 0.0 0.0 0.00 0.00 0.00 88 1019.1
20260504060142 -39 7 0.0 0.0 0.00 0.00 0.00 88 1019.1
20260504050133 -39 7 0.0 0.0 0.00 0.00 0.00 88 1019.1
20260504044630 -39 7 0.0 0.0 0.00 0.00 0.00 88 1019.0
20260504043129 -39 7 0.0 0.0 0.00 0.00 0.00 88 1018.7
20260504041628 -39 7 0.0 0.0 0.00 0.00 0.00 88 1018.6
20260504040129 -39 7 0.0 0.0 0.00 0.00 0.00 88 1018.6